Location: Tel Aviv
(32.0670°N, 34.7670°E)
Time: 03:48:32
(UTC+03:00)

Vanguard 2 - Pass Details

Date: 01 February 2022
Orbit: 552 x 2935 km, 32.9° (Epoch: 25 May)

Event Time Altitude Azimuth Distance (km) Brightness Sun altitude
Rises 23:11:58 0° 283° (WNW) 4,714 - -72.0°
Reaches altitude 10° 23:14:43 10° 279° (W) 4,005 - -72.4°
Maximum altitude 23:25:44 54° 206° (SSW) 2,708 - -73.5°
Drops below altitude 10° 23:41:56 10° 135° (SE) 5,694 - -74.6°
Sets 23:46:45 0° 131° (SE) 6,777 - -74.7°
